Weather in Volnoye

Russia / Republic of Adygea     44°37′07″N   40°42′26″E
temp.,
°C
wind,
m/s
gust,
m/s
humid.,
%
clouds,
%
prec.,
mm/h
press.,
hPa
HPBL,
m
24 july, sat
sat2400:00+18sw11844 0.1 101112
03:00+16s228810 0.1 101121
06:00+17sse2287100 0.0 101251
09:00+21e237191 0.0 1011442
12:00+26ene334913 0.0 10111701
15:00+26ene3448100 0.0 10111747
18:00+23se246799 0.1 1012136
21:00+19sse347926 0.1 101362
25 july, sun
sun2500:00+19sse347495 0.0 101385
03:00+18sse3379100 0.1 101364
06:00+19se227999 0.0 101460
09:00+23e246063 0.0 1014474
12:00+27ene575147 0.0 10141449
15:00+28e674987 0.4 10131904
18:00+26e585926 0.0 10141298
21:00+20e410700 0.0 1015255
26 july, mon
mon2600:00+18e23770 0.0 101534
03:00+17sse23870 0.0 101536
06:00+18ese25830 0.0 1015154
09:00+24ese68580 0.0 1014759
12:00+28e88451 0.0 10141354
15:00+29e78443 0.0 10141643
18:00+25e6126198 0.1 1014814
21:00+21wnw227373 0.9 101624
27 july, tue
tue2700:00+21ese5155938 0.1 1014438
03:00+18ese037394 0.3 101564
06:00+17ese2389100 1.3 101782
09:00+19ese51085100 2.6 1017431
12:00+18e61482100 0.5 1017513
15:00+19ene61276100 0.9 1018520
18:00+18ese61272100 0.1 1019547
21:00+17se6136781 0.1 1020498
28 july, wed
wed2800:00+17se614630 0.0 1019492
03:00+13se35820 0.0 1019103
06:00+14se35790 0.0 101997
09:00+23e59510 0.0 1018818
12:00+26e79390 0.0 10171871
15:00+27e78340 0.0 10162029
18:00+24ese58480 0.0 10171240
21:00+18se410670 0.0 1017165